Weather History for Watertown, WI

Change the Weather History Date:

Thursday, October 18, 2012

  Actual Average Record
Temperature  
Mean Temperature 46 °F -  
Max Temperature 51 °F 58 °F 86 °F (1950)
Min Temperature 42 °F 37 °F 19 °F (1952)
Degree Days  
Heating Degree Days 18    
Moisture  
Dew Point 42 °F    
Average Humidity 89    
Maximum Humidity 96    
Minimum Humidity 79    
Precipitation  
Precipitation 0.11 in - - ()
Sea Level Pressure  
Sea Level Pressure 29.32 in    
Wind  
Wind Speed 10 mph (SSW)    
Max Wind Speed 17 mph    
Max Gust Speed 23 mph    
Visibility 10 miles    
Events Rain    
Averages and records for this station are not official NWS values.
T = Trace of Precipitation, MM = Missing Value Source: NWS Daily Summary

Daily Weather History Graph

Daily Weather History Graph

Search for Another Location

Airport:

Trip Planner

Search our weather history database for the weather conditions in past years. The results will help you decide how hot, cold, wet, or windy it might be!

Date:

Astronomy

Oct. 18, 2012 Rise Set
Actual Time 7:12 AM CDT 6:06 PM CDT
Civil Twilight 6:43 AM CDT 6:35 PM CDT
Nautical Twilight 6:10 AM CDT 7:08 PM CDT
Astronomical Twilight 5:37 AM CDT 7:41 PM CDT
Moon 11:00 AM CDT (10/18) 8:34 PM CDT (10/18)
Length of Visible Light 11h 51m
Length of Day
10h 53m
Waxing Crescent, 14% of the Moon is Illuminated
Oct 18
Waxing Crescent
Oct 21
First Quarter
Oct 29
Full
Nov 6
Last Quarter
Nov 13
New

Hourly Weather History & Observations

Time (CDT) Temp. Windchill Dew Point Humidity Pressure Visibility Wind Dir Wind Speed Gust Speed Precip Events Conditions
12:15 AM 51.8 °F - 49.8 °F 93% 29.25 in 10.0 mi West 8.1 mph - N/A   Overcast
12:35 AM 51.3 °F - 49.1 °F 92% 29.24 in 10.0 mi WNW 3.5 mph - N/A   Overcast
12:55 AM 50.7 °F - 49.1 °F 94% 29.24 in 10.0 mi SW 5.8 mph - N/A   Overcast
1:15 AM 50.5 °F - 49.3 °F 95% 29.25 in 10.0 mi SW 9.2 mph - N/A   Overcast
1:35 AM 50.5 °F - 48.7 °F 94% 29.25 in 10.0 mi SW 9.2 mph - N/A   Overcast
1:55 AM 50.4 °F - 47.8 °F 91% 29.27 in 10.0 mi SW 8.1 mph - N/A   Overcast
2:15 AM 50.0 °F - 46.2 °F 87% 29.27 in 10.0 mi WSW 10.4 mph - N/A   Overcast
2:35 AM 48.9 °F - 46.2 °F 90% 29.27 in 10.0 mi SW 11.5 mph - 0.02 in Rain Light Rain
2:55 AM 48.4 °F - 45.9 °F 91% 29.26 in 10.0 mi SW 8.1 mph - 0.02 in   Light Drizzle
3:15 AM 47.8 °F - 45.5 °F 92% 29.26 in 10.0 mi SW 8.1 mph - N/A   Overcast
3:35 AM 47.3 °F - 44.6 °F 90% 29.26 in 10.0 mi SW 8.1 mph - N/A   Mostly Cloudy
3:55 AM 46.6 °F - 43.9 °F 90% 29.26 in 10.0 mi SW 9.2 mph - N/A   Scattered Clouds
4:15 AM 46.0 °F 41.9 °F 43.7 °F 92% 29.26 in 10.0 mi SW 8.1 mph - N/A   Overcast
4:35 AM 45.5 °F 41.3 °F 43.2 °F 92% 29.25 in 10.0 mi SW 8.1 mph - N/A   Overcast
4:55 AM 45.5 °F 41.3 °F 43.2 °F 92% 29.26 in 10.0 mi SW 8.1 mph - N/A   Overcast
5:15 AM 45.1 °F 40.3 °F 43.0 °F 92% 29.26 in 10.0 mi SW 9.2 mph 16.1 mph N/A   Overcast
5:35 AM 45.3 °F 40.1 °F 43.0 °F 92% 29.26 in 10.0 mi SW 10.4 mph - N/A   Overcast
5:55 AM 45.5 °F 40.8 °F 43.0 °F 91% 29.26 in 10.0 mi SW 9.2 mph - N/A   Overcast
6:35 AM 45.5 °F 40.3 °F 43.0 °F 91% 29.26 in 10.0 mi SW 10.4 mph - N/A   Overcast
6:55 AM 45.5 °F 40.8 °F 42.6 °F 90% 29.26 in 10.0 mi SW 9.2 mph - N/A   Overcast
7:15 AM 45.5 °F 41.3 °F 42.8 °F 90% 29.27 in 10.0 mi SSW 8.1 mph - N/A   Overcast
7:35 AM 45.0 °F 38.5 °F 42.4 °F 91% 29.27 in 10.0 mi SSW 13.8 mph 17.3 mph N/A   Overcast
7:55 AM 45.1 °F 39.5 °F 42.4 °F 90% 29.28 in 10.0 mi SSW 11.5 mph - N/A   Overcast
8:15 AM 44.2 °F 38.8 °F 41.4 °F 90% 29.28 in 7.0 mi SW 10.4 mph - N/A   Overcast
8:35 AM 44.1 °F 37.7 °F 41.7 °F 91% 29.28 in 10.0 mi SW 12.7 mph 16.1 mph N/A   Overcast
8:55 AM 44.4 °F 37.9 °F 41.0 °F 88% 29.29 in 10.0 mi SSW 13.8 mph 18.4 mph N/A   Overcast
9:15 AM 45.0 °F 38.5 °F 40.6 °F 85% 29.29 in 10.0 mi SW 13.8 mph 20.7 mph N/A   Overcast
9:35 AM 45.1 °F 38.4 °F 41.0 °F 85% 29.29 in 10.0 mi SSW 15.0 mph 18.4 mph N/A   Overcast
10:15 AM 45.3 °F 39.3 °F 41.5 °F 87% 29.30 in 10.0 mi SSW 12.7 mph 17.3 mph N/A   Overcast
10:35 AM 45.1 °F 38.4 °F 41.2 °F 86% 29.30 in 10.0 mi SSW 15.0 mph - N/A   Overcast
10:55 AM 45.1 °F 38.8 °F 41.0 °F 85% 29.30 in 10.0 mi SSW 13.8 mph - N/A   Overcast
11:15 AM 45.0 °F 38.9 °F 41.4 °F 87% 29.31 in 10.0 mi SSW 12.7 mph 17.3 mph N/A   Overcast
11:35 AM 45.0 °F 38.9 °F 41.0 °F 86% 29.31 in 10.0 mi SSW 12.7 mph 16.1 mph N/A   Overcast
11:55 AM 45.5 °F 39.9 °F 40.3 °F 82% 29.32 in 10.0 mi SSW 11.5 mph 18.4 mph N/A   Overcast
12:15 PM 46.0 °F 39.3 °F 40.1 °F 80% 29.32 in 10.0 mi SSW 16.1 mph 20.7 mph N/A   Overcast
12:35 PM 45.9 °F 40.8 °F 40.5 °F 81% 29.32 in 10.0 mi SSW 10.4 mph - N/A   Overcast
12:55 PM 45.3 °F 39.7 °F 40.8 °F 84% 29.32 in 10.0 mi SSW 11.5 mph 20.7 mph N/A   Light Drizzle
1:15 PM 45.7 °F 39.5 °F 40.8 °F 83% 29.33 in 10.0 mi SSW 13.8 mph - N/A   Light Drizzle
1:35 PM 46.0 °F 40.6 °F 39.7 °F 79% 29.33 in 10.0 mi SW 11.5 mph - N/A   Overcast
1:55 PM 45.9 °F 39.1 °F 40.1 °F 80% 29.33 in 10.0 mi SSW 16.1 mph 20.7 mph N/A   Light Drizzle
2:15 PM 44.4 °F 37.5 °F 40.6 °F 87% 29.34 in 7.0 mi SSW 15.0 mph 20.7 mph N/A   Light Drizzle
2:35 PM 43.9 °F 37.9 °F 40.5 °F 88% 29.34 in 10.0 mi SSW 11.5 mph 17.3 mph 0.01 in   Drizzle
2:55 PM 44.2 °F 39.2 °F 40.6 °F 87% 29.35 in 10.0 mi South 9.2 mph - 0.01 in   Light Drizzle
3:15 PM 44.6 °F 40.2 °F 41.0 °F 87% 29.36 in 10.0 mi South 8.1 mph - N/A   Overcast
3:35 PM 44.6 °F 38.8 °F 41.4 °F 88% 29.36 in 10.0 mi South 11.5 mph - N/A Rain Light Rain
3:55 PM 44.6 °F 38.1 °F 40.8 °F 87% 29.37 in 10.0 mi South 13.8 mph 18.4 mph 0.01 in Rain Light Rain
4:15 PM 44.2 °F 37.3 °F 40.5 °F 87% 29.37 in 10.0 mi SSW 15.0 mph 20.7 mph N/A   Overcast
4:35 PM 43.7 °F 36.0 °F 41.0 °F 90% 29.38 in 5.0 mi SSW 17.3 mph 23.0 mph 0.01 in   Drizzle
4:55 PM 43.9 °F 37.2 °F 40.3 °F 87% 29.38 in 10.0 mi South 13.8 mph 21.9 mph 0.01 in   Overcast
5:15 PM 43.7 °F 37.3 °F 40.6 °F 89% 29.39 in 10.0 mi South 12.7 mph 20.7 mph N/A   Light Drizzle
5:35 PM 43.3 °F 36.8 °F 40.3 °F 89% 29.40 in 10.0 mi South 12.7 mph 17.3 mph N/A   Light Drizzle
5:55 PM 43.3 °F 38.1 °F 40.5 °F 90% 29.40 in 10.0 mi South 9.2 mph 16.1 mph N/A Rain Light Rain
6:15 PM 42.8 °F 38.6 °F 41.2 °F 94% 29.40 in 7.0 mi South 6.9 mph - 0.02 in Rain Light Rain
6:35 PM 43.0 °F 36.8 °F 41.0 °F 93% 29.40 in 10.0 mi South 11.5 mph 16.1 mph 0.02 in   Light Drizzle
6:55 PM 43.0 °F 36.8 °F 40.3 °F 90% 29.41 in 10.0 mi South 11.5 mph 17.3 mph 0.02 in   Light Drizzle
7:15 PM 42.8 °F 36.6 °F 40.3 °F 91% 29.41 in 10.0 mi South 11.5 mph - N/A   Light Drizzle
7:35 PM 42.6 °F 36.8 °F 40.3 °F 91% 29.41 in 10.0 mi South 10.4 mph - N/A   Drizzle
7:55 PM 42.3 °F 36.8 °F 40.5 °F 93% 29.41 in 10.0 mi South 9.2 mph - 0.01 in Rain Rain
8:35 PM 42.3 °F 36.3 °F 40.5 °F 93% 29.42 in 10.0 mi South 10.4 mph - 0.01 in   Drizzle
8:55 PM 42.1 °F 37.1 °F 40.1 °F 93% 29.42 in 10.0 mi South 8.1 mph - 0.01 in   Light Drizzle
9:15 PM 42.1 °F 38.4 °F 40.5 °F 94% 29.42 in 10.0 mi SSE 5.8 mph - N/A   Drizzle
9:35 PM 42.1 °F 37.7 °F 40.6 °F 95% 29.42 in 10.0 mi South 6.9 mph - 0.01 in   Light Drizzle
9:55 PM 42.1 °F 37.7 °F 40.6 °F 95% 29.42 in 10.0 mi SSE 6.9 mph - 0.01 in   Drizzle
10:15 PM 42.1 °F 37.7 °F 40.8 °F 95% 29.42 in 10.0 mi South 6.9 mph - N/A   Drizzle
10:35 PM 42.1 °F 38.4 °F 41.0 °F 96% 29.42 in 10.0 mi SSE 5.8 mph - 0.01 in   Drizzle
10:55 PM 42.1 °F 36.1 °F 41.0 °F 96% 29.42 in 10.0 mi SSE 10.4 mph - 0.01 in   Drizzle